User: anonymous
Location: South Tamworth Observatory
(43.8246°N, 71.3026°W)
Time: 07:42:55
(UTC-04:00)
Language:

Cosmos 2208 Rocket - Orbit

View from above orbital plane
View from above orbital plane
View from above satellite
View from above satellite

Ground track
Ground track

The orbit data is extracted from the following two-line orbital elements,

1 22081U 92053B   14114.12309197  .00000202  00000-0  82842-4 0  5566
2 22081 074.0468 018.3273 0037089 269.3936 090.2965 14.33058574134079
Epoch (UTC): 24 April 2014 02:57:15
Eccentricity: 0.0037089
inclination: 74.0468°
perigee height: 755 km
apogee height: 808 km
right ascension of ascending node: 18.3273°
argument of perigee: 269.3936°
revolutions per day: 14.33058574
mean anomaly at epoch: 90.2965°
orbit number at epoch: 13407

The dashed part of the orbit path shows where the satellite is in the earth's shadow,  

DLR